Wind_Speed
30 31 32 33 34 35 36 37 38 38 39 40 41 41 41 42 42 42 42 42 42 43 43 43 44 44 44 44 45 45 46 46 47 47 46 45 45 46 46 46 45 46 46 46
32 33 33 34 35 36 37 38 38 39 40 42 42 43 42 42 42 42 42 42 43 43 44 44 43 44 45 45 45 45 46 46 46 47 46 46 45 46 47 46 46 46 46 46
32 33 34 35 36 38 38 39 39 40 41 42 44 44 42 42 42 41 41 42 42 43 44 44 44 44 46 46 46 46 46 46 46 47 47 47 47 47 47 47 47 47 47 47
32 33 34 35 36 37 38 38 40 41 42 43 43 44 41 41 41 41 41 42 42 42 43 44 45 45 45 46 46 45 46 46 46 47 47 48 48 47 47 48 48 48 48 48
33 33 34 35 36 37 38 39 40 41 42 43 43 45 43 42 41 41 42 42 42 42 43 43 44 45 45 45 46 45 45 46 46 47 47 48 49 48 48 48 49 49 49 49
34 34 35 35 36 37 38 40 41 42 42 43 42 44 45 43 42 42 42 43 43 43 43 44 44 44 45 45 45 45 46 46 47 47 48 48 49 49 49 49 50 50 50 50
36 36 37 37 38 39 39 40 42 43 42 43 42 43 44 43 43 42 42 42 43 43 43 43 43 43 44 44 45 45 46 46 47 47 48 49 49 50 50 50 50 50 50 51
36 36 37 38 39 40 40 40 41 42 43 43 42 42 41 41 41 41 41 42 42 43 43 42 42 42 43 44 44 45 45 46 46 47 47 48 49 49 50 51 51 51 50 50
37 37 37 38 39 40 41 40 41 41 42 42 42 42 41 40 40 40 40 40 40 41 42 42 42 43 43 44 44 44 45 46 46 46 47 47 48 49 50 51 51 51 51 51
38 39 38 39 39 39 39 39 39 39 40 42 42 41 40 39 39 39 39 38 38 39 40 41 42 43 43 43 43 44 45 46 46 46 47 47 47 48 49 50 51 52 53 53
38 39 39 38 38 37 37 37 37 38 38 40 40 39 38 39 39 39 38 38 38 38 39 41 42 42 43 43 43 44 45 46 47 47 48 48 48 48 49 49 50 52 53 54
37 38 38 37 36 36 36 36 36 36 37 38 39 39 37 38 38 38 38 38 37 37 37 38 40 41 41 41 43 44 45 46 47 47 48 48 49 49 49 49 50 51 53 54
36 36 36 34 34 34 34 34 35 35 36 37 37 37 37 37 37 37 37 37 37 38 37 37 37 38 39 41 42 43 44 45 46 47 47 48 49 49 49 50 50 51 52 52
35 35 34 34 33 33 32 32 32 33 34 35 35 35 35 36 37 36 36 36 37 37 37 36 37 38 38 40 41 42 43 44 45 46 46 47 48 48 49 49 49 50 50 51
35 34 33 33 32 32 31 31 31 32 33 35 34 34 34 35 35 35 35 35 36 36 36 36 36 38 39 40 41 41 42 43 43 44 45 46 46 48 48 49 49 50 50 51
34 33 32 31 31 32 31 31 32 32 32 33 33 32 33 34 35 35 36 36 36 36 36 36 37 38 39 39 40 41 41 41 42 42 43 44 45 46 47 48 48 48 49 50
32 32 32 31 31 32 32 31 32 33 32 32 32 32 32 32 33 34 35 35 36 36 37 37 38 38 38 39 40 40 40 41 41 41 41 42 43 44 45 47 47 47 48 48
31 31 32 31 31 31 32 31 32 31 31 32 32 32 32 32 32 33 34 34 34 36 37 37 38 38 38 39 39 39 39 40 40 41 41 42 42 43 43 44 45 46 46 46
31 31 31 32 32 32 31 31 30 31 30 31 31 31 32 33 32 32 33 33 34 34 35 35 36 37 37 37 37 37 38 39 40 41 41 41 41 41 41 42 42 43 44 44
30 30 30 31 32 33 31 31 30 31 30 30 30 31 32 32 32 31 32 32 32 33 33 34 35 36 37 37 37 37 37 38 39 39 40 40 40 39 40 40 40 41 41 42
30 30 30 30 31 32 31 31 31 31 30 30 30 31 31 32 32 31 31 31 32 32 33 34 35 35 35 35 36 36 36 37 38 39 39 39 39 39 39 39 39 39 39 40
31 30 29 30 31 31 31 31 31 31 31 31 30 31 31 31 31 31 30 31 31 32 32 33 33 33 34 34 35 35 35 36 37 38 38 39 39 39 39 39 39 38 38 38
30 29 29 29 30 31 31 31 31 31 31 30 30 30 30 30 30 30 30 30 31 30 30 31 32 33 33 33 34 34 34 35 36 37 37 37 38 38 38 38 37 37 37 37
29 28 29 29 29 30 30 30 31 30 30 29 29 30 30 29 29 28 28 28 28 29 30 30 30 31 32 32 32 33 33 34 34 35 35 35 35 35 35 35 35 35 35 34
28 29 29 28 29 29 29 29 29 29 29 28 28 28 29 28 28 27 27 27 28 29 29 30 30 30 31 31 31 31 31 30 30 31 31 30 31 32 33 33 34 34 34 34
28 29 29 29 29 29 28 28 28 27 27 27 27 27 27 27 27 27 27 28 28 29 30 30 30 30 30 29 29 29 28 27 27 27 28 28 29 30 31 31 31 32 32 32
Wind_Direction
276 275 276 277 276 276 275 275 274 274 273 272 272 271 271 271 270 269 269 268 268 268 269 268 267 266 265 263 262 261 260 259 258 257 256 256 256 255 255 256 255 254 253 254
278 277 277 276 276 276 276 276 276 275 274 274 273 272 272 271 271 271 270 269 268 268 268 269 268 266 264 263 262 261 261 261 259 258 257 256 256 255 255 256 255 254 253 253
281 280 278 277 277 278 278 278 278 277 276 275 275 274 273 272 272 272 271 271 270 269 268 268 267 267 266 264 264 263 262 261 260 258 257 256 255 255 254 255 255 253 252 253
283 282 280 279 279 280 279 279 279 278 277 277 277 276 274 273 273 272 272 271 270 270 269 268 268 268 267 266 264 263 262 261 260 258 258 257 256 256 255 255 255 253 252 253
285 284 283 281 281 281 281 281 280 280 279 278 278 277 276 276 275 274 273 272 271 271 269 269 268 267 267 266 265 264 263 262 260 259 258 258 257 255 254 254 254 253 253 253
287 286 285 284 283 282 282 282 282 282 281 280 280 279 278 278 278 276 275 273 272 271 270 269 268 268 267 266 265 264 263 262 260 260 259 258 257 256 254 253 254 253 253 253
288 286 285 285 284 283 283 283 284 283 282 282 281 280 280 280 279 279 277 275 273 271 270 270 269 268 267 265 264 264 263 261 261 260 260 259 258 257 254 254 254 254 254 254
292 291 288 287 285 285 284 284 284 285 285 284 282 281 282 282 281 280 279 277 274 271 269 268 268 268 267 265 264 263 262 261 261 261 260 260 258 257 256 255 255 255 254 253
295 293 292 289 288 286 285 284 285 285 284 284 284 283 283 283 283 282 281 278 276 273 270 269 268 268 267 266 264 263 261 260 261 261 261 260 259 258 258 257 257 256 256 256
295 294 294 292 290 287 287 287 286 285 286 286 286 285 284 284 284 283 282 281 278 274 272 270 269 268 267 266 264 263 262 261 261 261 261 260 259 258 258 258 258 257 257 257
297 296 296 293 291 291 289 287 286 285 285 285 286 286 285 285 285 285 283 282 280 277 274 272 269 268 267 265 264 264 263 262 261 260 260 260 260 259 259 259 258 258 258 259
300 299 297 295 292 291 289 288 286 286 286 286 287 286 285 285 285 285 284 282 280 278 276 273 271 268 267 266 265 264 264 262 261 261 261 260 260 260 260 260 260 259 259 259
303 301 300 298 295 293 291 289 288 287 287 287 287 286 286 285 285 285 284 282 281 279 277 275 273 270 269 268 267 266 265 264 263 262 262 261 260 260 261 261 261 261 260 260
302 301 301 299 297 294 293 291 290 289 288 287 287 287 286 285 284 284 284 283 282 280 279 276 274 273 271 270 269 269 269 268 266 265 264 263 262 261 261 262 262 262 262 261
301 300 299 298 296 294 293 293 291 290 290 289 288 287 286 286 285 285 285 284 283 281 279 277 276 275 274 273 272 272 272 270 269 267 266 265 264 263 263 263 264 264 264 263
301 300 299 297 295 295 294 294 294 294 293 292 291 288 286 286 287 287 286 285 284 282 281 280 279 278 277 275 274 273 273 272 271 269 268 267 266 265 265 265 266 266 266 265
302 300 299 298 296 296 296 297 296 295 293 294 293 290 289 289 289 288 287 286 285 284 284 282 281 280 279 278 276 274 273 272 272 271 270 269 268 267 267 267 267 267 266 264
304 301 301 301 299 300 301 300 299 298 295 293 293 292 290 291 291 291 290 288 286 285 284 283 282 281 281 280 278 276 274 273 272 272 272 271 270 269 270 269 269 267 265 263
304 302 301 302 302 302 303 303 303 301 300 297 295 294 293 293 292 291 291 289 288 287 286 286 285 283 282 281 280 278 277 275 274 273 273 272 271 270 270 270 269 268 266 264
304 303 302 303 303 304 305 304 303 302 300 299 297 296 297 296 294 293 292 291 291 291 289 288 288 287 285 283 282 281 279 276 274 273 273 273 272 271 270 270 270 269 266 265
304 303 302 302 302 303 304 304 304 303 302 301 298 297 297 297 298 297 295 295 294 294 292 291 291 290 288 286 284 283 281 278 276 275 274 274 273 271 270 270 271 269 267 265
305 303 303 303 303 305 305 304 303 302 302 301 300 299 298 299 299 299 297 296 296 296 295 294 294 292 290 288 287 285 283 281 278 277 276 275 273 272 272 271 271 270 268 266
305 304 304 305 305 304 304 304 303 302 301 301 301 301 301 300 300 299 298 297 297 298 298 298 297 295 294 292 290 287 286 284 282 280 278 276 274 272 272 271 270 269 268 266
305 303 303 304 304 304 304 304 304 304 302 302 302 302 302 302 301 301 299 298 298 298 300 301 301 301 300 297 294 292 289 287 284 281 278 275 274 272 271 271 270 269 268 266
306 305 305 304 304 304 304 305 305 305 303 302 302 302 303 303 302 301 300 300 300 301 302 303 304 305 304 301 299 296 293 291 288 284 280 277 275 273 272 270 269 268 267 266
305 305 305 305 305 304 305 305 305 305 304 303 304 305 304 304 303 302 302 302 302 303 304 304 305 305 305 304 302 301 298 294 290 287 284 280 278 276 273 271 268 266 266 266
Height
5687 5687 5686 5685 5684 5682 5681 5680 5679 5678 5676 5675 5674 5675 5675 5673 5672 5671 5670 5670 5669 5668 5667 5667 5667 5666 5666 5666 5666 5667 5667 5668 5669 5670 5671 5673 5675 5677 5678 5680 5681 5683 5685 5688
5679 5678 5678 5676 5674 5672 5671 5670 5669 5668 5666 5664 5663 5663 5663 5661 5660 5660 5659 5658 5657 5657 5656 5655 5654 5654 5654 5654 5654 5655 5655 5656 5657 5658 5659 5661 5663 5664 5666 5668 5669 5671 5674 5676
5671 5671 5668 5666 5665 5663 5661 5660 5659 5657 5655 5652 5651 5651 5652 5651 5649 5648 5647 5646 5645 5645 5644 5643 5643 5642 5641 5642 5642 5643 5643 5644 5644 5646 5647 5649 5650 5652 5653 5655 5657 5659 5662 5664
5662 5661 5659 5657 5655 5653 5651 5650 5647 5645 5643 5641 5640 5637 5640 5639 5638 5636 5636 5635 5634 5633 5632 5631 5630 5630 5629 5629 5630 5630 5631 5631 5632 5634 5635 5637 5638 5640 5642 5644 5645 5647 5650 5652
5653 5652 5650 5648 5646 5643 5641 5639 5637 5634 5631 5629 5628 5625 5628 5626 5626 5625 5624 5623 5622 5621 5619 5619 5618 5618 5617 5617 5617 5618 5618 5619 5620 5621 5623 5625 5626 5628 5629 5631 5633 5635 5638 5640
5645 5643 5641 5639 5636 5634 5631 5628 5625 5622 5619 5618 5618 5613 5613 5614 5614 5613 5612 5610 5609 5608 5607 5606 5606 5605 5605 5605 5605 5605 5606 5607 5608 5609 5611 5612 5613 5615 5617 5619 5621 5623 5625 5627
5636 5634 5631 5629 5626 5624 5621 5618 5614 5610 5607 5606 5605 5601 5602 5602 5601 5599 5598 5597 5595 5595 5594 5594 5593 5593 5593 5593 5593 5593 5594 5595 5596 5597 5598 5599 5600 5602 5604 5606 5608 5610 5613 5615
5625 5624 5621 5618 5615 5612 5609 5607 5603 5599 5596 5595 5593 5591 5592 5590 5588 5587 5585 5584 5583 5582 5582 5582 5581 5581 5580 5580 5581 5581 5582 5583 5583 5585 5586 5587 5588 5589 5591 5593 5595 5597 5599 5601
5615 5613 5611 5607 5604 5601 5597 5595 5593 5588 5584 5582 5581 5580 5580 5579 5577 5575 5574 5572 5571 5570 5570 5570 5569 5569 5568 5568 5568 5568 5569 5570 5571 5572 5573 5574 5575 5577 5578 5580 5582 5584 5585 5587
5605 5602 5601 5597 5593 5590 5587 5584 5581 5577 5573 5570 5570 5570 5570 5568 5566 5564 5563 5561 5559 5558 5558 5557 5557 5557 5556 5556 5556 5556 5557 5558 5559 5559 5560 5561 5562 5563 5565 5566 5568 5570 5571 5573
5595 5592 5589 5586 5583 5579 5577 5574 5570 5567 5564 5561 5559 5562 5559 5557 5555 5553 5551 5550 5548 5547 5546 5545 5544 5544 5544 5544 5544 5544 5545 5545 5546 5547 5547 5548 5549 5550 5552 5553 5554 5556 5557 5559
5586 5582 5578 5576 5572 5569 5566 5564 5561 5559 5556 5552 5550 5553 5549 5547 5544 5543 5541 5539 5537 5535 5534 5533 5532 5532 5532 5532 5532 5532 5532 5532 5533 5534 5534 5535 5536 5537 5538 5539 5540 5542 5543 5544
5577 5573 5569 5566 5565 5561 5557 5554 5551 5549 5546 5543 5541 5543 5539 5537 5534 5532 5530 5528 5526 5525 5524 5523 5522 5521 5520 5520 5520 5519 5519 5519 5520 5520 5521 5521 5522 5523 5524 5525 5526 5527 5528 5529
5569 5565 5562 5559 5554 5551 5548 5546 5543 5539 5536 5534 5533 5532 5530 5527 5525 5523 5520 5518 5516 5514 5513 5512 5511 5510 5509 5508 5508 5507 5507 5507 5507 5507 5507 5508 5508 5509 5510 5511 5512 5513 5514 5515
5561 5557 5553 5550 5546 5543 5540 5538 5534 5531 5528 5525 5524 5522 5521 5517 5515 5513 5510 5508 5506 5504 5503 5501 5500 5499 5498 5497 5496 5496 5495 5494 5494 5494 5494 5495 5495 5495 5496 5497 5498 5498 5499 5500
5552 5549 5545 5543 5539 5535 5533 5530 5527 5523 5520 5517 5514 5513 5511 5508 5506 5503 5501 5498 5496 5494 5492 5491 5490 5488 5487 5486 5485 5484 5483 5482 5481 5481 5481 5481 5482 5482 5483 5483 5483 5484 5485 5485
5545 5541 5537 5535 5531 5528 5526 5523 5519 5516 5512 5509 5506 5505 5502 5499 5497 5494 5491 5489 5486 5484 5482 5480 5479 5477 5476 5474 5473 5472 5471 5470 5469 5469 5469 5469 5469 5469 5469 5469 5469 5470 5470 5471
5537 5533 5529 5526 5524 5520 5520 5515 5511 5507 5504 5501 5498 5495 5493 5490 5488 5485 5482 5479 5476 5474 5472 5470 5468 5466 5464 5463 5461 5460 5459 5458 5457 5457 5456 5456 5456 5456 5456 5456 5456 5456 5456 5457
5530 5526 5522 5519 5515 5513 5511 5507 5503 5499 5497 5493 5490 5487 5484 5481 5479 5476 5473 5470 5467 5464 5462 5459 5457 5455 5453 5451 5450 5448 5447 5446 5445 5444 5443 5443 5443 5443 5443 5443 5442 5442 5442 5443
5523 5519 5516 5511 5507 5504 5504 5500 5495 5492 5489 5486 5482 5479 5476 5473 5471 5469 5465 5461 5458 5455 5452 5449 5447 5444 5442 5440 5438 5437 5435 5434 5433 5432 5431 5431 5430 5430 5430 5430 5429 5429 5429 5430
5517 5513 5509 5505 5501 5498 5496 5491 5488 5486 5483 5478 5474 5471 5468 5464 5462 5459 5456 5453 5449 5446 5443 5440 5437 5434 5432 5429 5428 5426 5424 5423 5421 5420 5419 5419 5418 5418 5418 5417 5417 5417 5417 5417
5510 5506 5502 5499 5495 5494 5488 5484 5481 5478 5473 5470 5466 5463 5460 5457 5453 5450 5447 5444 5441 5438 5435 5431 5428 5425 5422 5419 5417 5415 5413 5411 5410 5409 5408 5407 5406 5406 5405 5405 5405 5405 5405 5405
5503 5500 5495 5493 5490 5485 5481 5477 5473 5469 5466 5462 5458 5455 5452 5449 5445 5442 5439 5436 5433 5430 5426 5423 5420 5416 5413 5410 5407 5405 5403 5400 5398 5397 5396 5394 5393 5393 5393 5393 5393 5393 5393 5394
5497 5493 5489 5485 5482 5478 5474 5469 5466 5462 5458 5454 5451 5448 5444 5441 5438 5435 5431 5428 5425 5422 5418 5415 5411 5408 5404 5401 5398 5395 5392 5389 5387 5385 5384 5383 5382 5382 5381 5381 5381 5382 5382 5382
5490 5486 5482 5479 5475 5471 5467 5463 5459 5455 5451 5447 5444 5441 5437 5434 5431 5428 5424 5421 5418 5414 5411 5407 5403 5400 5396 5392 5389 5385 5382 5379 5377 5375 5374 5372 5372 5371 5371 5370 5370 5370 5371 5371
5483 5480 5476 5472 5468 5464 5461 5456 5453 5449 5445 5441 5438 5434 5430 5427 5424 5421 5417 5414 5411 5407 5403 5400 5396 5392 5388 5384 5380 5377 5373 5371 5368 5366 5364 5363 5362 5361 5360 5360 5360 5359 5360 5360